Simultaneous Nadir Overpasses (SNOs) Predictions

Prediction of SNOs between GOES-14 and AQUA Satellite Orbit:

Table of predicted SNOs for the next 14.0 days since TLE Epoch: 11/12/2022
Index Date Time (GOES-14) GOES-14 Lat,Lon AQUA Lat,Lon Distance(km) Time Diff (sec)
1 11/12/2022 20:24:25 -0.06,-104.11 0.76,-100.40 422.95 80
2 11/13/2022 08:45:30 0.03,-104.35 0.30,-105.51 132.06 80
3 11/15/2022 08:29:57 0.04,-104.34 -0.36,-102.37 223.39 80
4 11/15/2022 20:51:10 -0.01,-104.07 -0.77,-107.51 391.57 80
5 11/17/2022 20:38:17 -0.02,-104.07 -0.08,-104.37 34.65 80
6 11/19/2022 20:28:03 -0.02,-104.07 0.59,-101.23 322.42 80
7 11/20/2022 08:49:08 -0.01,-104.35 0.45,-106.35 227.39 80
8 11/22/2022 08:33:34 0.01,-104.34 -0.25,-103.21 129.25 80
9 11/22/2022 20:54:46 0.02,-104.03 -0.91,-108.34 489.96 80
10 11/24/2022 08:20:39 0.02,-104.33 -0.92,-100.07 485.67 80
11 11/24/2022 20:41:51 0.01,-104.02 -0.23,-105.20 132.84 80
